This is the latest recevied weather packets stored in our database for station/object KMKC. If no packets are shown the sender has not sent any weather packets the latest 10 day(s).
| Time | Temp. | Humidity | Pressure | Rain* | Wind** | Luminosity | Snow |
|---|---|---|---|---|---|---|---|
| 1777958014 | 17.78° C | 55% | 1005.1 hPa | - | - | - | - |
| 1777957415 | 17.78° C | 55% | 1005.1 hPa | - | - | - | - |
| 1777956811 | 18.89° C | 48% | 1004.4 hPa | - | - | - | - |
| 1777956212 | 18.89° C | 48% | 1004.4 hPa | - | - | - | - |
| 1777955612 | 21.67° C | 33% | 1004.1 hPa | - | - | - | - |
| 1777955010 | 21.67° C | 37% | 1003.7 hPa | - | - | - | - |
| 1777954840 | 21.67° C | 37% | 1003.7 hPa | - | - | - | - |
| 1777954415 | 21.67° C | 37% | 1003.7 hPa | - | - | - | - |
| 1777953213 | 21.67° C | 56% | 1002.7 hPa | - | - | - | - |
| 1777952616 | 21.67° C | 56% | 1002.7 hPa | - | - | - | - |
| 1777952013 | 21.67° C | 56% | 1002.7 hPa | - | - | - | - |
| 1777951416 | 21.67° C | 56% | 1002.7 hPa | - | - | - | - |
| 1777950816 | 21.67° C | 56% | 1002.7 hPa | - | - | - | - |
| 1777950218 | 21.67° C | 56% | 1002.7 hPa | - | - | - | - |
| 1777949614 | 22.78° C | 49% | 1002 hPa | - | - | - | - |
| 1777949018 | 22.78° C | 49% | 1002 hPa | - | - | - | - |
| 1777948414 | 22.78° C | 49% | 1002 hPa | - | - | - | - |
| 1777947813 | 22.78° C | 49% | 1002 hPa | - | - | - | - |
| 1777947215 | 22.78° C | 49% | 1002 hPa | - | - | - | - |
| 1777946613 | 22.78° C | 49% | 1002 hPa | - | - | - | - |
| 1777946013 | 23.89° C | 47% | 1001.4 hPa | - | - | - | - |
| 1777945415 | 23.89° C | 47% | 1001.4 hPa | - | - | - | - |
| 1777944812 | 23.89° C | 47% | 1001.4 hPa | - | - | - | - |
| 1777944215 | 23.89° C | 47% | 1001.4 hPa | - | - | - | - |
| 1777943613 | 23.89° C | 47% | 1001.4 hPa | - | - | - | - |
* Rain since midnight (hover to see other rain measurements)
** Current wind speed in m/s (hover to see current wind gust speed)